• In Hungary
  • List of Countries
  • For 7 days
  • Water Temperature
  • Satellite Maps
  • Weather Map
  • News
  • Weather Widgets
  • user-avatar
    Login

    Hourly Weather Perekhrestya

    Today, 24 January, Wednesday

    Time Temperature Precipitation Wind Pressure Humidity
    00:00 -1°C° 0 mm 0 mps 761 mmHg 90%
    01:00 -1°C° 0 mm 0 mps 762 mmHg 91%
    02:00 -2°C° 0 mm 1 mps 763 mmHg 87%
    03:00 -2°C° 0 mm 1 mps 762 mmHg 94%
    04:00 -4°C° 0 mm 2 mps 763 mmHg 96%
    05:00 -4°C° 0 mm 2 mps 763 mmHg 96%
    06:00 -5°C° 0 mm 2 mps 763 mmHg 97%
    07:00 -5°C° 0 mm 2 mps 763 mmHg 97%
    08:00 -5°C° 0 mm 2 mps 764 mmHg 95%
    09:00 -6°C° 0 mm 3 mps 764 mmHg 94%
    10:00 -5°C° 0 mm 3 mps 764 mmHg 92%
    11:00 -4°C° 0 mm 4 mps 764 mmHg 90%
    12:00 -4°C° 0 mm 4 mps 764 mmHg 89%
    13:00 -3°C° 0 mm 4 mps 764 mmHg 88%
    14:00 -3°C° 0 mm 4 mps 764 mmHg 89%
    15:00 -2°C° 0 mm 4 mps 764 mmHg 87%
    16:00 -2°C° 0 mm 4 mps 764 mmHg 87%
    17:00 -2°C° 0 mm 4 mps 764 mmHg 90%
    18:00 -3°C° 0 mm 4 mps 764 mmHg 93%
    19:00 -3°C° 0 mm 4 mps 764 mmHg 92%
    20:00 -3°C° 0 mm 4 mps 764 mmHg 92%
    21:00 -3°C° 0 mm 4 mps 764 mmHg 92%
    22:00 -3°C° 0 mm 4 mps 764 mmHg 93%
    23:00 -3°C° 0.1 mm 4 mps 764 mmHg 97%

    Tomorrow, 25 January, Thursday

    Time Temperature Precipitation Wind Pressure Humidity
    00:00 -3°C° 0.2 mm 4 mps 764 mmHg 99%
    01:00 -2°C° 0.2 mm 3 mps 764 mmHg 100%
    02:00 -2°C° 0.2 mm 3 mps 764 mmHg 100%
    03:00 -2°C° 0.2 mm 3 mps 764 mmHg 100%
    04:00 -2°C° 0.1 mm 3 mps 763 mmHg 98%
    05:00 -2°C° 0 mm 3 mps 763 mmHg 95%
    06:00 -2°C° 0 mm 3 mps 763 mmHg 94%
    07:00 -2°C° 0 mm 3 mps 763 mmHg 95%
    08:00 -2°C° 0 mm 3 mps 763 mmHg 92%
    09:00 -2°C° 0 mm 3 mps 762 mmHg 92%
    10:00 -3°C° 0 mm 4 mps 763 mmHg 91%
    11:00 -3°C° 0 mm 4 mps 762 mmHg 89%
    12:00 -1°C° 0 mm 4 mps 762 mmHg 85%
    13:00 -1°C° 0 mm 4 mps 762 mmHg 84%
    14:00 0°C° 0 mm 4 mps 761 mmHg 84%
    15:00 0°C° 0 mm 4 mps 761 mmHg 83%
    16:00 0°C° 0 mm 4 mps 760 mmHg 82%
    17:00 0°C° 0 mm 3 mps 760 mmHg 88%
    18:00 -1°C° 0 mm 2 mps 760 mmHg 94%
    19:00 -2°C° 0 mm 2 mps 760 mmHg 96%
    20:00 -2°C° 0 mm 2 mps 759 mmHg 96%
    21:00 -2°C° 0 mm 2 mps 759 mmHg 95%
    22:00 -2°C° 0 mm 2 mps 759 mmHg 94%
    23:00 -2°C° 0 mm 2 mps 759 mmHg 94%

    Day after tomorrow, 26 January, Friday

    Time Temperature Precipitation Wind Pressure Humidity
    00:00 -2°C° 0 mm 2 mps 759 mmHg 93%
    01:00 -2°C° 0 mm 3 mps 759 mmHg 93%
    02:00 -2°C° 0 mm 3 mps 758 mmHg 92%
    03:00 -2°C° 0 mm 3 mps 758 mmHg 92%
    04:00 -2°C° 0 mm 2 mps 758 mmHg 93%
    05:00 -2°C° 0 mm 2 mps 758 mmHg 93%
    06:00 -2°C° 0 mm 2 mps 757 mmHg 93%
    07:00 -2°C° 0 mm 3 mps 757 mmHg 92%
    08:00 -2°C° 0 mm 3 mps 757 mmHg 91%
    09:00 -2°C° 0 mm 3 mps 757 mmHg 91%
    10:00 0°C° 0 mm 3 mps 758 mmHg 89%
    11:00 0°C° 0 mm 4 mps 758 mmHg 87%
    12:00 +1°C° 0 mm 4 mps 758 mmHg 86%
    13:00 +4°C° 0 mm 4 mps 758 mmHg 86%
    14:00 +4°C° 0 mm 4 mps 757 mmHg 86%
    15:00 +5°C° 0 mm 4 mps 757 mmHg 86%
    16:00 +4°C° 0 mm 4 mps 757 mmHg 87%
    17:00 +3°C° 0 mm 3 mps 758 mmHg 90%
    18:00 +2°C° 0 mm 3 mps 758 mmHg 93%
    19:00 +2°C° 0 mm 2 mps 758 mmHg 95%
    20:00 +2°C° 0 mm 2 mps 758 mmHg 94%
    21:00 +1°C° 0 mm 2 mps 758 mmHg 93%
    22:00 +1°C° 0 mm 2 mps 758 mmHg 91%
    23:00 +1°C° 0 mm 2 mps 758 mmHg 90%

    27 January, Saturday

    Time Temperature Precipitation Wind Pressure Humidity
    00:00 +1°C° 0 mm 2 mps 758 mmHg 89%
    01:00 +1°C° 0 mm 2 mps 759 mmHg 87%
    02:00 +1°C° 0 mm 2 mps 759 mmHg 86%
    03:00 +1°C° 0 mm 2 mps 759 mmHg 85%
    04:00 +1°C° 0 mm 2 mps 759 mmHg 84%
    05:00 -1°C° 0 mm 2 mps 759 mmHg 84%
    06:00 -1°C° 0 mm 2 mps 759 mmHg 83%
    07:00 +2°C° 0 mm 1 mps 760 mmHg 82%
    08:00 +1°C° 0 mm 1 mps 760 mmHg 82%
    09:00 +1°C° 0 mm 1 mps 760 mmHg 85%
    10:00 +3°C° 0 mm 1 mps 761 mmHg 86%
    11:00 +4°C° 0 mm 1 mps 761 mmHg 86%
    12:00 +5°C° 0 mm 2 mps 761 mmHg 77%
    13:00 +6°C° 0 mm 2 mps 761 mmHg 77%
    14:00 +6°C° 0 mm 2 mps 761 mmHg 76%
    15:00 +8°C° 0 mm 1 mps 761 mmHg 78%
    16:00 +8°C° 0 mm 1 mps 761 mmHg 83%
    17:00 +6°C° 0 mm 0 mps 762 mmHg 88%
    18:00 +6°C° 0 mm 0 mps 762 mmHg 86%
    19:00 +5°C° 0 mm 0 mps 762 mmHg 88%
    20:00 +4°C° 0 mm 0 mps 763 mmHg 90%
    21:00 +4°C° 0 mm 0 mps 763 mmHg 90%
    22:00 +4°C° 0 mm 1 mps 763 mmHg 89%
    23:00 +4°C° 0 mm 1 mps 763 mmHg 87%

    28 January, Sunday

    Time Temperature Precipitation Wind Pressure Humidity
    00:00 +3°C° 0 mm 1 mps 764 mmHg 86%
    01:00 +3°C° 0 mm 1 mps 764 mmHg 88%
    02:00 +3°C° 0 mm 1 mps 764 mmHg 89%

    29 January, Monday

    Time Temperature Precipitation Wind Pressure Humidity
    Show more